Location: Newark
(46.3567°N, 6.1428°E)
Time: 15:22:25
(UTC+00:00)

First-Move - Visible Passes

Search period start: 18 September 2019 00:00
Search period end: 28 September 2019 00:00
Orbit: 576 x 670 km, 97.6° (Epoch: 17 September)

Date Brightness Start Highest point End Pass type
(mag) Time Alt. Az. Time Alt. Az. Time Alt. Az.
19 Sep ? 18:02:05 10° SSW 18:05:36 26° W 18:09:06 10° NW visible
20 Sep ? 18:21:17 10° SW 18:24:02 17° W 18:26:46 10° NW visible
21 Sep ? 18:41:30 10° WSW 18:42:31 11° W 18:43:33 10° WNW visible
22 Sep ? 04:48:33 10° ENE 04:49:51 11° E 04:51:08 10° ESE visible
24 Sep ? 17:57:12 10° SSW 18:00:47 28° W 18:04:21 10° NW visible
25 Sep ? 18:16:19 10° SW 18:19:12 18° W 18:22:06 10° NW visible
26 Sep ? 18:36:09 10° WSW 18:37:41 12° W 18:39:12 10° WNW visible
27 Sep ? 04:44:16 10° ENE 04:45:01 10° E 04:45:45 10° E visible
